[Iaude] MPEC V28: 2023 VO [a=2.75,e=0.81,i=4.4,H=23.5]
    mpec at marsden.cfa.harvard.edu 
    mpec at marsden.cfa.harvard.edu
       
    Sat Nov  4 09:58:03 EDT 2023
    
    
  
M.P.E.C. 2023-V28                              Issued 2023 November 4, 13:56 UT
     The Minor Planet Electronic Circulars contain information on unusual
         minor planets, routine data on comets and natural satellites,
         and occasional editorial announcements.  They are published
    on behalf of Division F of the International Astronomical Union by the
          Minor Planet Center, Smithsonian Astrophysical Observatory,
                          Cambridge, MA 02138, U.S.A.
			  
             Prepared using the Tamkin Foundation Computer Network
                              MPC at CFA.HARVARD.EDU
            URL https://www.minorplanetcenter.net/    ISSN 1523-6714
                                    2023 VO                                     
Observations:
     K23V00O 1C2023 11 02.22283 23 08 27.83 +33 42 08.6          21.1 GVEV028G96
     K23V00O 1C2023 11 02.22796 23 08 35.20 +33 41 44.3          20.6 GVEV028G96
     K23V00O*1C2023 11 03.20575923 29 52.148+32 25 18.80         20.55GVEV028G96
     K23V00O 1C2023 11 03.21090823 29 57.988+32 24 55.62         19.91GVEV028G96
     K23V00O 1C2023 11 03.21607123 30 03.791+32 24 31.50         20.23GVEV028G96
     K23V00O 1C2023 11 03.22122823 30 09.544+32 24 07.56               VEV028G96
     K23V00O  C2023 11 03.27113723 31 04.984+32 20 11.57         20.2 GVEV028H01
     K23V00O  C2023 11 03.27600023 31 10.398+32 19 48.77         20.4 GVEV028H01
     K23V00O  C2023 11 03.28605623 31 21.582+32 19 01.50         19.9 GVEV028H01
     K23V00O  C2023 11 03.29218923 31 28.359+32 18 32.76         20.3 GVEV028H01
     K23V00O KC2023 11 03.29444423 31 30.86 +32 18 20.7          20.2 GXEV028858
     K23V00O KC2023 11 03.29916223 31 36.10 +32 17 58.4          20.2 GXEV028858
     K23V00O KC2023 11 03.30381623 31 41.26 +32 17 36.3          20.1 GXEV028858
     K23V00O KC2023 11 03.33843823 32 19.648+32 14 58.56         20.34GVEV028I52
     K23V00O KC2023 11 03.33933223 32 20.558+32 14 54.74         20.33GVEV028I52
     K23V00O KC2023 11 03.34023023 32 21.592+32 14 50.53         19.95GVEV028I52
     K23V00O KC2023 11 03.34113023 32 22.560+32 14 45.56         20.37GVEV028I52
     K23V00O mC2023 11 04.11398523 45 38.473+31 18 32.54         19.84GVEV028I52
     K23V00O mC2023 11 04.11453623 45 38.959+31 18 29.92         21.15GVEV028I52
     K23V00O mC2023 11 04.11509323 45 39.452+31 18 28.12               VEV028I52
     K23V00O mC2023 11 04.11565223 45 39.942+31 18 25.78         20.39GVEV028I52
Observer details:
858 Tebbutt Observatory, Edgewood.  Observer F. B. Zoltowski.  0.51-m f/8.1
    Schmidt-Cassegrain + CCD.
G96 Mt. Lemmon Survey.  Observer J. B. Fazekas.  Measurers B. Gray, D. Rankin,
    F. C. Shelly, E. C. Beshore, D. Fay, J. B. Fazekas, D. C. Fuls, A. R.
    Gibbs, A. D. Grauer, H. Groeller, J. K. Hogan, R. A. Kowalski, S. M.
    Larson, G. J. Leonard, R. L. Seaman, K. W. Wierzchos.  1.5-m reflector +
    10K CCD.
H01 Magdalena Ridge Observatory, Socorro.  Observers W. H. Ryan, E. V. Ryan.
    Measurer W. H. Ryan.  2.4-m f/8.9 Ritchey-Chretien + CCD.
I52 Steward Observatory, Mt. Lemmon Station.  Observer D. Rankin.  Measurers
    E. C. Beshore, D. Fay, J. B. Fazekas, D. C. Fuls, A. R. Gibbs, A. D.
    Grauer, H. Groeller, J. K. Hogan, R. A. Kowalski, S. M. Larson, G. J.
    Leonard, D. Rankin, R. L. Seaman, F. C. Shelly, K. W. Wierzchos.  1.0-m
    prime focus + CCD.
Orbital elements:
2023 VO                                                  Earth MOID = 0.0471 AU
Epoch 2023 Sept. 13.0 TT = JDT 2460200.5                Veres                   
M 359.63403              (2000.0)            P               Q                  
n   0.21558162     Peri.  310.48484     +0.49807644     +0.86701633             
a   2.7546191      Node   349.36037     -0.77043832     +0.43494428             
e   0.8066961      Incl.    4.42085     -0.39792545     +0.24311757             
P   4.57           H   23.51          G   0.15           U   9                  
Residuals in seconds of arc
231102 G96  0.1+  0.4-    231103 H01  0.2+  0.0     231103 I52  0.8-  0.5+
231102 G96  0.1-  0.2+    231103 H01  0.3+  0.1-    231103 I52  0.2-  0.5+
231103 G96  0.3-  0.3-    231103 H01  0.1-  0.0     231103 I52  0.5-  0.2-
231103 G96  0.5+  0.4+    231103 858  0.0   0.3+    231104 I52  0.2+  0.1+
231103 G96  0.7+  0.2+    231103 858  0.1+  0.2+    231104 I52  0.0   0.3-
231103 G96  0.3+  0.2+    231103 858  0.0   0.0     231104 I52  0.2-  0.2+
231103 H01  0.1+  0.0     231103 I52  0.2+  0.1+    231104 I52  0.4-  0.2+
Ephemeris:
2023 VO                  a,e,i = 2.75, 0.81, 4                   q = 0.5325
Date    TT    R. A. (2000) Decl.     Delta      r    Elong.  Phase     V
2023 10 05    14 12 42.8 -12 00 59   0.3725  0.6767    23.9   143.2    27.8
...
2023 10 20    15 18 47.7 -01 44 06   0.1358  0.8769    26.7   149.3    27.2
...
2023 10 28    19 09 17.2 +31 07 50   0.06450 0.9899    84.7    91.6    20.8
...
2023 11 03    23 25 48.9 +32 41 11   0.1128  1.0744   134.6    41.1    20.5
2023 11 04    23 43 48.1 +31 26 44   0.1256  1.0884   137.9    37.6    20.7
2023 11 05    23 58 07.9 +30 19 09   0.1389  1.1024   140.5    34.9    20.9
...
2023 11 11    00 45 15.6 +25 46 12   0.2251  1.1856   147.1    27.0    21.9
...
2023 11 19    01 11 21.5 +22 53 35   0.3498  1.2943   146.4    25.0    22.9
...
2023 12 04    01 36 04.4 +20 46 19   0.6057  1.4903   137.6    26.5    24.5
M. P. C. Staff               (C) Copyright 2023 MPC           M.P.E.C. 2023-V28
    
    
More information about the Iaude
mailing list